Location: Hlohovi?ky
(49.8934°N, 13.6739°E)
Time: 00:28:19
(UTC+00:00)

Cosmos 1697 Rocket - Pass Details

Date: 19 May 2025
Orbit: 830 x 844 km, 71.0° (Epoch: 23 June)

Event Time Altitude Azimuth Distance (km) Brightness Sun altitude
Rises 21:17:56 0° 324° (NW) 3,407 7.5 -16.4°
Reaches altitude 10° 21:20:40 10° 313° (NW) 2,469 6.2 -16.6°
Maximum altitude 21:25:26 29° 256° (WSW) 1,507 4.1 -16.9°
Enters shadow 21:29:07 15° 205° (SSW) 2,127 4.4 -17.2°
